GFSSE_250_spd_057.txt.gz
Wind_Speed
19 21 22 23 24 24 24 26 30 32 34 35 35 37 38 40 40 42 42 41 43 44 43 43 41 39 38 36 34 32 30 30 29 29 31 32 31 30 30 30 31 34 34
21 23 24 26 28 28 28 30 34 35 38 36 37 39 42 43 44 45 45 45 47 48 45 43 37 35 34 34 32 31 29 28 27 27 29 30 30 29 29 29 28 29 31
26 27 28 29 30 30 33 36 38 38 38 39 41 42 43 46 49 49 48 48 49 49 45 41 36 35 33 31 32 32 30 29 27 26 26 28 28 27 27 27 27 27 28
30 31 31 32 34 35 37 38 38 39 41 42 42 44 47 49 52 53 51 52 50 47 42 39 38 34 31 32 34 32 31 30 30 28 27 26 25 25 27 26 27 26 27
32 34 35 37 39 39 40 39 42 44 44 44 46 47 50 52 54 54 55 53 49 45 42 40 35 34 33 33 32 32 31 30 29 30 29 28 26 25 24 25 26 28 27
36 38 41 41 43 42 41 43 45 46 47 47 48 52 54 57 58 56 55 52 48 45 42 39 37 33 34 32 29 27 26 26 26 26 28 28 29 28 26 25 25 27 28
40 43 43 44 44 43 44 46 48 48 49 50 52 55 57 59 58 56 54 51 49 46 43 40 37 32 29 23 21 17 14 13 13 14 18 22 25 28 28 28 27 26 27
44 47 47 46 45 46 48 50 51 52 52 54 57 60 61 60 57 54 54 52 50 47 44 40 35 30 26 23 19 16 15 13 13 11 11 11 13 15 19 24 26 28 29
49 49 50 49 49 49 51 53 55 54 55 58 60 62 63 59 56 52 52 52 49 46 44 40 35 31 28 25 22 21 20 18 16 16 15 15 15 16 16 17 17 19 24
53 52 53 54 54 55 56 57 58 58 58 60 64 64 63 59 55 54 53 53 50 46 43 40 35 32 30 29 27 25 24 23 22 22 21 20 19 17 17 19 20 22 22
56 56 56 57 58 58 59 61 62 61 63 65 66 65 62 58 53 53 54 56 51 46 43 40 36 34 34 33 32 29 27 26 26 26 26 25 25 24 23 23 22 23 25
59 60 62 62 62 62 62 64 65 66 68 67 65 63 61 57 55 56 57 57 51 46 43 41 39 39 38 39 38 35 32 29 29 30 30 29 27 27 27 26 26 26 26
61 64 65 65 67 67 67 68 69 69 68 65 65 60 60 59 61 63 58 55 51 47 44 42 42 42 42 43 43 41 39 37 34 33 34 34 33 31 29 29 30 31 32
65 66 67 68 70 72 72 71 70 68 67 67 64 64 65 65 68 63 57 54 52 49 47 46 45 45 46 47 48 47 45 44 43 39 38 38 39 38 36 34 36 35 36
66 68 70 72 72 72 72 71 70 69 68 67 68 69 70 68 65 63 60 58 57 54 51 49 49 49 50 52 52 52 52 51 50 47 45 43 44 45 42 41 40 40 40
71 73 73 72 70 70 71 71 70 70 70 73 74 72 73 72 68 68 65 62 59 56 55 54 53 53 53 54 54 56 57 57 55 54 52 50 50 50 50 49 46 45 45
75 74 72 73 73 72 71 70 70 73 78 76 76 78 77 76 75 72 68 63 59 56 57 57 57 57 59 59 61 61 61 61 61 59 58 57 55 55 55 54 53 52 52
75 76 75 73 75 74 73 75 77 79 77 79 78 80 79 77 74 69 64 61 60 59 60 60 61 62 63 64 66 68 68 68 66 64 63 62 60 59 60 60 58 58 60
77 74 74 75 75 77 80 81 81 82 81 82 82 79 75 72 68 66 65 64 64 64 64 64 65 65 67 68 69 72 73 73 72 72 70 67 65 64 64 65 65 65 66
75 75 75 78 80 86 83 82 83 84 84 82 79 75 72 70 69 69 69 69 68 68 68 68 68 69 70 72 72 73 74 76 77 77 75 73 71 70 70 70 70 70 70
78 80 82 86 85 85 84 85 85 85 82 78 77 75 73 73 72 72 72 72 71 71 72 73 73 73 75 75 74 76 78 80 80 80 79 79 78 77 75 76 76 76 77
83 86 87 86 87 88 88 87 86 84 81 80 78 76 75 75 76 76 76 77 77 77 78 78 77 77 78 81 80 79 80 82 85 87 86 85 85 83 83 82 82 83 84
89 88 89 90 91 90 89 86 85 83 81 80 80 80 80 80 80 81 81 82 83 83 82 83 83 82 81 84 84 81 80 80 86 90 90 90 89 89 89 89 89 89 89
88 91 93 92 91 89 88 86 84 82 82 82 82 83 85 85 85 86 86 87 89 89 88 88 88 87 85 83 86 87 83 80 81 83 89 93 94 94 96 96 95 95 94
93 94 92 91 90 88 87 86 84 84 84 85 86 87 88 89 90 91 92 91 91 91 92 92 93 92 91 89 88 90 90 90 90 90 91 99 102 104 103 103 102 100 97
94 92 92 90 89 88 87 87 87 88 88 89 89 89 91 92 94 96 95 96 96 96 96 97 98 98 99 98 98 98 100 100 102 103 102 103 107 112 114 109 106 104 103

GFSSE_250_spd_063.txt.gz
Wind_Speed
18 17 21 24 27 29 29 29 30 32 34 35 36 36 38 39 39 40 38 39 43 45 44 43 40 38 34 32 32 32 31 30 28 29 30 30 32 33 34 35 35 35 32
20 21 24 27 30 31 32 33 34 36 37 38 38 39 42 42 44 43 41 44 46 47 48 46 40 37 31 29 29 29 27 26 25 26 29 31 31 31 32 33 32 33 33
23 24 27 30 32 34 34 36 38 39 40 41 40 41 45 46 46 44 45 45 48 52 48 46 44 37 32 28 29 28 27 27 29 30 29 31 30 31 32 32 30 30 31
26 28 31 33 35 37 38 40 41 42 41 42 42 47 46 46 46 48 49 49 53 52 50 49 45 39 34 31 30 30 29 28 29 30 30 30 29 30 31 32 33 31 31
31 33 34 36 38 40 42 43 45 45 45 45 47 47 47 48 48 52 53 56 53 53 51 49 44 39 37 36 33 31 29 28 28 29 28 29 30 30 30 30 30 31 31
35 36 37 39 41 43 45 46 48 48 49 48 48 49 49 49 55 57 58 58 55 53 51 48 44 42 43 39 34 31 29 28 28 28 28 27 27 30 31 32 31 29 28
38 39 40 42 43 46 48 50 50 51 51 51 51 49 52 56 59 59 58 56 54 52 49 45 45 46 47 41 35 31 28 29 28 29 29 28 28 28 30 31 32 32 30
42 41 43 45 47 49 52 53 53 53 53 54 54 55 58 60 60 59 57 55 52 51 46 46 49 49 47 40 35 32 29 29 29 30 30 29 27 26 29 30 32 31 30
44 44 45 48 51 53 54 55 56 56 57 58 57 59 60 61 60 59 58 55 53 48 49 49 48 46 44 41 37 35 31 29 32 32 32 29 26 25 24 25 26 25 27
47 48 50 53 55 57 57 58 58 59 60 61 62 63 63 61 61 60 60 57 54 52 52 50 48 50 46 42 40 37 35 31 32 36 37 35 31 30 28 27 26 26 25
51 53 56 56 57 58 58 61 61 62 63 63 65 65 63 63 61 60 60 57 56 56 56 55 53 49 46 43 43 41 38 36 35 37 39 39 37 35 33 33 31 30 29
55 57 59 60 61 61 61 63 64 65 66 67 66 65 64 62 62 60 59 61 62 60 58 56 54 54 51 47 44 42 41 40 40 41 43 43 42 39 38 37 36 36 34
59 61 63 65 64 63 64 66 67 68 69 68 68 68 63 62 61 61 62 67 63 60 59 59 57 54 50 46 43 42 42 43 45 46 47 48 46 45 43 41 40 40 39
62 65 66 66 67 68 69 70 70 69 68 69 68 63 66 64 61 65 68 65 65 64 63 60 57 54 50 47 46 47 46 47 48 50 51 53 53 50 49 49 47 44 43
65 66 67 68 70 71 72 74 73 72 72 70 65 67 66 64 68 72 68 68 67 66 65 62 58 53 51 50 49 49 51 52 53 54 55 55 57 57 55 54 54 52 50
69 70 70 71 72 74 74 74 75 75 73 70 72 71 70 72 75 72 71 72 70 69 66 63 59 56 53 52 52 52 54 55 57 59 60 60 60 61 61 61 60 60 58
71 72 73 75 75 73 74 76 75 74 71 72 72 73 77 80 77 77 76 74 72 70 66 63 61 59 57 56 55 54 55 57 59 61 62 64 66 66 67 68 67 66 65
73 75 76 75 76 76 76 75 74 73 75 74 76 81 81 80 80 79 78 76 74 72 68 65 63 62 60 58 58 57 57 58 60 62 63 63 66 68 70 72 73 74 72
75 76 77 77 76 76 75 73 74 77 78 78 84 84 82 84 83 82 81 79 76 73 70 67 66 64 63 61 61 61 61 62 62 63 64 66 67 68 71 71 73 76 77
76 76 76 75 75 75 75 77 81 84 83 84 88 86 87 87 87 86 83 80 76 73 71 68 68 67 66 65 64 64 65 65 66 66 67 68 69 70 72 74 74 73 74
76 75 75 75 77 80 81 85 87 86 87 92 91 91 91 92 90 87 83 79 76 75 74 72 71 70 70 69 68 69 70 69 69 69 69 70 71 74 76 76 77 77 76
76 77 79 80 82 84 87 90 90 91 93 95 94 95 95 93 89 84 81 80 79 78 76 74 73 73 74 75 73 73 73 75 76 75 75 76 77 76 77 78 80 81 81
80 80 82 84 87 92 92 93 95 96 98 98 98 99 96 91 86 84 83 82 80 78 78 79 79 78 77 81 81 79 76 75 77 80 81 80 80 80 80 81 82 82 84
84 85 88 90 92 94 96 97 99 103 101 102 101 98 93 89 87 86 84 82 82 82 83 84 85 84 83 84 87 89 87 84 83 81 87 89 88 86 86 85 84 84 85
89 89 91 95 97 99 100 101 104 104 104 102 97 94 91 91 89 87 86 87 87 88 89 90 91 93 95 95 96 97 97 97 96 93 88 94 96 96 95 93 90 88 87
94 96 98 98 99 102 104 106 107 106 101 98 95 93 92 91 91 91 92 93 94 95 97 99 100 100 101 102 104 107 109 109 109 109 104 99 100 106 105 103 100 97 95

GFSSE_250_spd_069.txt.gz
Wind_Speed
13 14 17 20 21 22 25 28 31 33 34 32 33 34 34 36 38 36 36 37 38 40 39 38 38 38 38 38 36 32 30 28 27 27 28 27 28 32 35 34 35 37 38
17 19 20 22 22 25 29 31 33 36 36 37 36 38 38 39 40 39 40 39 41 41 40 39 39 41 40 39 37 35 32 29 26 27 26 27 27 27 28 28 29 30 32
21 22 23 24 25 28 31 34 36 38 39 40 40 41 42 42 42 41 42 42 45 42 42 43 42 44 46 41 38 37 34 30 28 24 25 26 28 28 31 31 30 29 31
26 26 27 28 29 32 34 37 39 41 42 43 44 45 45 45 45 44 45 47 47 44 46 45 44 45 50 44 41 38 35 31 28 26 23 23 26 27 29 32 33 32 32
28 29 30 31 33 35 38 40 41 43 44 45 46 47 47 47 47 48 49 49 48 47 49 49 47 46 50 46 42 39 35 33 29 26 25 22 22 23 24 25 27 29 32
30 32 33 34 37 39 41 42 42 45 46 47 49 49 49 49 50 51 52 51 50 50 52 52 49 48 49 48 44 40 38 35 32 29 26 25 24 21 21 21 22 26 29
33 36 37 39 41 42 44 44 46 47 49 50 51 51 52 51 52 53 54 54 51 53 54 50 49 50 52 52 47 42 39 35 33 31 29 27 27 25 23 22 22 23 27
37 39 41 43 44 46 47 49 50 51 52 52 53 53 54 53 54 56 57 55 53 55 52 50 52 53 54 53 48 44 41 37 34 34 32 31 29 28 28 27 25 24 25
41 43 45 47 48 49 52 52 53 54 55 56 55 56 57 56 57 59 59 57 56 55 54 52 53 55 56 54 49 44 41 40 38 36 35 34 32 31 31 31 31 29 29
45 47 48 50 51 55 54 55 56 58 60 59 58 59 59 59 60 62 60 59 58 56 54 54 56 57 59 54 51 48 45 41 41 40 38 36 36 35 35 35 34 34 32
47 48 50 52 55 55 56 58 59 62 62 61 60 62 61 62 64 64 62 61 60 58 53 57 58 57 55 55 53 51 48 44 41 39 40 39 39 40 40 39 38 36 36
51 54 55 57 57 58 60 61 63 63 63 62 63 64 65 66 67 66 65 63 62 59 56 58 60 58 57 57 56 54 50 48 45 41 41 40 42 44 44 44 43 42 41
59 58 58 60 62 63 63 65 65 65 65 66 67 68 69 70 69 69 67 64 63 61 61 63 59 58 62 61 57 55 54 51 48 44 43 41 42 45 49 49 49 48 46
63 64 64 65 66 67 67 66 66 67 68 69 70 71 72 73 73 70 68 66 65 64 64 64 61 62 65 64 59 58 55 52 49 45 44 44 44 46 49 52 54 54 53
64 66 68 68 68 69 69 70 70 71 72 73 73 74 75 73 71 68 68 68 66 66 68 66 65 69 69 69 64 61 56 52 49 48 46 48 47 48 49 52 55 57 58
69 69 69 69 70 71 73 73 74 76 76 77 77 78 76 73 71 72 70 70 69 70 71 71 72 73 72 70 68 64 58 53 51 49 49 50 51 50 52 53 55 57 59
71 72 72 72 72 73 74 76 78 78 80 79 79 78 77 75 75 73 73 73 73 74 74 78 76 77 74 74 73 67 61 57 54 53 52 52 54 55 55 56 56 58 59
71 72 73 75 75 76 78 80 81 80 80 80 78 78 79 79 77 77 77 77 78 80 81 78 81 80 79 77 74 68 63 60 57 56 55 55 57 58 59 59 59 60 61
74 75 75 75 75 77 77 78 78 79 80 80 82 81 80 81 81 81 82 84 83 81 86 86 84 84 82 78 73 68 65 62 60 59 58 58 59 60 62 62 63 65 64
67 69 73 74 76 77 79 80 82 83 83 82 82 84 85 84 85 86 86 85 88 92 92 89 86 86 82 78 72 69 66 65 63 63 62 62 62 62 64 64 66 67 67
72 75 76 78 81 83 83 85 85 84 85 86 86 87 88 87 87 89 92 94 96 94 91 90 89 86 83 78 73 71 69 68 66 64 64 65 65 65 65 66 67 69 70
80 79 81 84 84 83 85 86 87 88 88 90 91 91 92 95 98 97 98 97 95 94 95 92 89 82 80 79 75 72 70 72 71 68 69 69 69 69 69 70 72 73 73
86 86 86 86 87 88 89 89 90 92 92 94 96 97 99 99 100 98 98 99 99 98 95 91 87 84 81 81 79 76 73 73 74 76 74 76 75 75 74 75 75 75 75
81 83 85 86 87 88 90 94 95 97 98 99 101 100 100 99 100 100 101 100 98 95 92 91 89 87 85 83 82 82 80 79 79 77 81 82 83 83 85 84 83 83 83
86 85 84 87 90 93 97 99 101 103 105 104 102 101 102 102 102 101 100 98 96 95 93 92 91 90 88 87 87 88 89 90 91 90 87 90 91 92 93 94 94 94 93
85 88 91 94 97 100 102 103 103 103 103 103 103 104 105 104 102 102 101 99 98 96 94 93 92 92 93 94 96 97 98 99 100 101 99 97 97 97 99 100 102 102 101

GFSSE_250_spd_075.txt.gz
Wind_Speed
17 18 19 19 17 16 18 21 22 22 25 28 31 32 32 32 31 33 37 38 40 41 37 37 37 36 34 36 36 37 37 35 32 26 24 24 25 26 28 31 36 43 43
21 23 23 23 21 21 22 24 24 24 27 31 35 37 37 37 36 37 39 40 42 43 41 40 40 39 37 38 40 40 42 39 35 31 25 23 24 25 26 28 30 31 36
26 27 27 26 25 24 26 27 28 28 29 34 37 39 40 40 39 40 42 43 44 44 43 41 41 41 39 40 42 43 44 43 38 33 27 24 22 23 24 26 29 30 31
31 30 29 29 29 28 29 31 31 32 33 37 40 42 43 44 42 41 44 46 47 46 45 43 43 44 41 43 45 46 46 45 40 35 30 26 23 22 22 24 27 30 32
34 32 32 31 31 31 32 32 34 35 37 40 43 43 46 46 46 45 47 48 49 48 47 45 45 46 44 45 47 48 48 47 41 35 33 29 26 24 22 22 25 27 31
36 36 32 31 31 32 33 35 37 38 41 43 45 46 48 48 49 49 50 50 51 50 49 48 47 48 47 46 48 49 50 48 43 37 35 32 29 26 25 23 23 25 28
28 28 30 31 32 33 35 36 39 41 44 46 48 49 51 52 52 52 52 53 53 52 51 50 50 51 49 47 47 47 50 49 43 41 36 33 31 28 27 27 25 24 26
28 30 31 32 34 36 37 40 42 45 47 49 50 53 55 54 54 55 55 53 55 53 53 53 53 52 51 48 46 46 48 47 42 42 35 35 33 31 28 28 28 27 26
33 34 35 35 37 39 41 44 46 48 50 52 53 57 58 59 56 57 57 57 57 56 56 56 56 55 53 48 47 45 45 45 42 42 34 37 36 33 32 30 30 30 31
41 39 41 40 42 43 44 46 48 50 51 53 57 60 60 60 60 59 60 61 60 59 59 59 59 57 52 48 47 47 48 44 40 39 39 38 40 37 35 35 35 34 34
46 46 44 45 44 45 47 49 51 53 54 58 60 62 61 62 63 64 64 63 61 61 62 61 60 57 53 51 52 50 48 43 41 41 44 44 44 42 40 39 38 38 39
51 50 49 50 51 49 52 53 54 57 59 61 62 65 65 66 66 66 65 64 65 65 63 62 59 57 56 57 54 51 47 45 42 47 49 44 48 47 47 43 42 42 42
54 53 54 54 57 56 58 59 61 63 64 66 67 67 68 68 67 67 68 67 68 65 65 63 63 63 60 56 57 53 50 49 49 53 49 50 49 51 53 52 46 44 45
57 58 57 59 61 62 63 65 66 68 68 69 70 70 69 69 70 68 67 69 67 68 69 68 69 65 61 59 56 54 54 54 57 57 54 56 58 56 57 55 49 47 48
64 64 64 64 66 67 68 68 70 72 71 72 72 71 71 68 65 65 68 73 72 71 73 74 68 67 63 59 60 59 59 60 58 57 61 64 61 62 57 54 51 50 50
72 70 68 69 71 73 72 72 73 72 72 71 71 67 61 63 67 70 74 75 76 78 76 73 72 67 64 65 63 59 59 63 65 67 68 67 67 66 60 57 54 53 53
74 75 72 71 74 76 71 68 67 67 68 68 63 66 69 70 74 81 80 83 82 80 75 72 71 70 69 69 69 74 72 73 71 73 72 71 69 66 64 59 57 56 54
73 75 74 72 75 69 69 65 63 62 67 69 71 72 75 84 85 84 88 83 78 77 74 75 75 76 75 75 77 78 79 79 78 77 76 73 70 67 65 63 58 56 58
56 62 55 51 58 60 62 66 67 69 73 73 77 85 88 87 89 87 82 82 81 81 80 80 82 83 83 81 82 85 83 83 81 78 75 74 72 68 64 62 62 60 60
60 56 61 62 66 67 69 72 79 79 80 84 89 92 93 91 87 84 86 87 86 85 86 86 87 87 87 87 91 90 89 85 82 80 78 73 70 68 66 64 63 64 63
61 67 68 73 76 74 75 78 83 87 89 90 88 88 88 87 87 89 91 91 91 91 93 94 92 92 94 94 92 88 89 87 85 81 77 74 73 70 68 67 66 66 65
74 76 79 79 80 81 82 84 84 84 87 88 87 89 91 91 94 96 97 97 96 98 100 100 99 98 96 96 93 90 88 89 84 82 80 79 76 73 71 70 69 68 68
69 71 77 83 85 86 84 85 87 88 89 90 91 94 96 97 99 101 102 104 105 104 105 103 101 99 98 98 97 94 88 85 86 87 84 81 79 78 76 74 73 73 73
75 76 81 82 83 86 89 91 91 91 93 95 99 101 102 104 108 109 108 108 109 107 106 105 104 104 102 101 101 98 94 90 90 85 88 88 84 81 80 79 79 78 78
74 75 81 82 85 88 91 95 97 98 100 103 104 104 106 108 108 109 110 109 109 111 111 111 110 109 108 106 105 103 101 98 94 90 84 92 89 88 86 84 83 83 83
86 89 93 94 95 96 99 102 104 106 107 106 105 105 106 107 109 110 111 112 113 114 114 115 115 113 113 111 110 108 105 103 102 98 92 89 92 95 92 92 92 92 91